Погода в Зубово

Россия / Республика Башкортостан     54°37′14″N   55°54′07″E
темп.,
°C
ветер,
м/с
пор.,
м/с
влажн.,
%
обл.,
%
осадки,
мм/ч
давл.,
гПа
погр.,
м
16 мая, вс
вс1623:00+21ююз33495 0.0 102116
02:00+19ю22555 0.0 102114
05:00+17ю225814 0.0 102215
08:00+21ю34534 0.0 1022154
11:00+27ююз45375 0.0 1022549
14:00+30ююз56255 0.0 10212603
17:00+30ююз45253 0.0 10202926
20:00+26ююз22420 0.0 101911
17 мая, пн
пн1723:00+21ю33491 0.0 101932
02:00+20ю485012 0.0 1020137
05:00+17ююв225781 0.0 102023
08:00+21ююз36545 0.0 1021203
11:00+26юз464011 0.0 1020602
14:00+30зюз563232 0.0 10201678
17:00+30юз452874 0.0 10183119
20:00+20вюв61059100 1.6 1019131
18 мая, вт
вт1823:00+19ю6136454 1.7 1020278
02:00+17юз23665 0.0 101926
05:00+16ююз116518 0.0 101911
08:00+21зюз12541 0.0 1019139
11:00+25зсз22435 0.0 1018700
14:00+28ссз344282 0.0 10181502
17:00+28ссз5642100 0.0 10171873
20:00+22ссв5955100 0.0 1018236
19 мая, ср
ср1923:00+18ссв386587 0.0 1019146
02:00+15св410755 0.0 1019216
05:00+13св36804 0.0 1020135
08:00+16всв23701 0.0 1021211
11:00+21в33564 0.0 1021827
14:00+24вюв34422 0.0 10211530
17:00+25юв35315 0.0 10201548
20:00+21юв345023 0.0 102067
20 мая, чт
чт2023:00+17ююв365666 0.0 1021101
02:00+14ююв411535 0.0 1022209
05:00+13юв38550 0.0 1023131
08:00+16ююв49530 0.0 1024303
11:00+21ю45400 0.0 1024975
14:00+24ююв45330 0.0 10231502
17:00+24ююз34320 0.0 10211656
20:00+22зсз11460 0.0 102111